,,Stat6,,Stat2,,Stat8,,Stat9,,Stat10,,Wind1,,Wind1,
time,status,PA1M_AVG,status,PR1M_SUM,status,RH1M_AVG,status,SR1M_AVG,status,TA1M_AVG,status,W1dAve1m,status,W1sAve1m,
2004-06-12, 00:00:00,VALID,918.073,VALID,0,VALID,91.0685,VALID,0,VALID,18.9384,VALID,110,VALID,1.59393,
2004-06-12, 00:01:00,VALID,918.083,VALID,0,VALID,90.4874,VALID,0,VALID,19.0171,VALID,117,VALID,1.15025,
2004-06-12, 00:02:00,VALID,918.07,VALID,0,VALID,90.3144,VALID,-0.0339617,VALID,19.0425,VALID,115,VALID,1.57924,
2004-06-12, 00:03:00,VALID,918.055,VALID,0,VALID,89.9291,VALID,-0.0169808,VALID,19.0549,VALID,111,VALID,1.54334,
2004-06-12, 00:04:00,VALID,918.044,VALID,0,VALID,89.5947,VALID,-0.0509425,VALID,19.084,VALID,109,VALID,1.47824,
2004-06-12, 00:05:00,VALID,918.043,VALID,0,VALID,89.535,VALID,-0.0509425,VALID,19.1423,VALID,112,VALID,1.49447,
2004-06-12, 00:06:00,VALID,918.023,VALID,0,VALID,89.5032,VALID,-0.0169808,VALID,19.1453,VALID,119,VALID,1.18229,
2004-06-12, 00:07:00,VALID,918.009,VALID,0,VALID,89.835,VALID,-0.0339617,VALID,19.1158,VALID,122,VALID,1.08185,
2004-06-12, 00:08:00,VALID,917.996,VALID,0,VALID,90.0995,VALID,0,VALID,19.0549,VALID,123,VALID,1.13063,
2004-06-12, 00:09:00,VALID,917.985,VALID,0,VALID,90.5217,VALID,-0.0169808,VALID,18.9839,VALID,124,VALID,1.27474,
2004-06-12, 00:10:00,VALID,917.989,VALID,0,VALID,90.982,VALID,-0.0169808,VALID,18.9258,VALID,122,VALID,1.32431,
2004-06-12, 00:11:00,VALID,917.978,VALID,0,VALID,91.0087,VALID,0,VALID,18.8739,VALID,120,VALID,0.951349,
2004-06-12, 00:12:00,VALID,917.984,VALID,0,VALID,91.1334,VALID,-0.0339617,VALID,18.8227,VALID,128,VALID,1.11628,
2004-06-12, 00:13:00,VALID,917.994,VALID,0,VALID,91.6496,VALID,-0.0169808,VALID,18.7579,VALID,127,VALID,1.508,
2004-06-12, 00:14:00,VALID,917.993,VALID,0,VALID,91.9624,VALID,-0.0509425,VALID,18.7129,VALID,121,VALID,1.21474,
2004-06-12, 00:15:00,VALID,917.979,VALID,0,VALID,92.1112,VALID,0,VALID,18.6769,VALID,121,VALID,1.22693,
2004-06-12, 00:16:00,VALID,917.977,VALID,0,VALID,92.4736,VALID,0,VALID,18.6709,VALID,120,VALID,1.80278,
2004-06-12, 00:17:00,VALID,917.976,VALID,0,VALID,92.6504,VALID,-0.0169808,VALID,18.7064,VALID,114,VALID,1.83281,
2004-06-12, 00:18:00,VALID,917.967,VALID,0,VALID,92.2829,VALID,0,VALID,18.7676,VALID,117,VALID,1.45076,
2004-06-12, 00:19:00,VALID,917.947,VALID,0,VALID,92.26,VALID,0,VALID,18.7998,VALID,120,VALID,1.69684,
2004-06-12, 00:20:00,VALID,917.918,VALID,0,VALID,92.377,VALID,0,VALID,18.8093,VALID,117,VALID,1.68731,
2004-06-12, 00:21:00,VALID,917.905,VALID,0,VALID,92.438,VALID,0,VALID,18.7994,VALID,115,VALID,1.30558,
2004-06-12, 00:22:00,VALID,917.896,VALID,0,VALID,92.6771,VALID,0,VALID,18.7802,VALID,108,VALID,1.22075,
2004-06-12, 00:23:00,VALID,917.866,VALID,0,VALID,92.733,VALID,0,VALID,18.7482,VALID,104,VALID,1.17569,
2004-06-12, 00:24:00,VALID,917.855,VALID,0,VALID,92.5283,VALID,-0.0339617,VALID,18.7417,VALID,95,VALID,0.985491,
2004-06-12, 00:25:00,VALID,917.852,VALID,0,VALID,92.2282,VALID,-0.0339617,VALID,18.7094,VALID,93,VALID,0.873728,
2004-06-12, 00:26:00,VALID,917.846,VALID,0,VALID,92.6148,VALID,0,VALID,18.6546,VALID,113,VALID,0.944124,
2004-06-12, 00:27:00,VALID,917.841,VALID,0,VALID,92.8983,VALID,-0.0509425,VALID,18.6064,VALID,125,VALID,1.07304,
2004-06-12, 00:28:00,VALID,917.834,VALID,0,VALID,93.543,VALID,0,VALID,18.5614,VALID,123,VALID,1.77883,
2004-06-12, 00:29:00,VALID,917.849,VALID,0,VALID,93.5329,VALID,-0.0169808,VALID,18.5386,VALID,120,VALID,1.6266,
2004-06-12, 00:30:00,VALID,917.842,VALID,0,VALID,93.5723,VALID,-0.0169808,VALID,18.5321,VALID,115,VALID,1.52646,
2004-06-12, 00:31:00,VALID,917.833,VALID,0,VALID,93.4642,VALID,-0.0169808,VALID,18.5227,VALID,112,VALID,1.43388,
2004-06-12, 00:32:00,VALID,917.84,VALID,0,VALID,93.1972,VALID,-0.0169808,VALID,18.5287,VALID,102,VALID,1.37264,
2004-06-12, 00:33:00,VALID,917.848,VALID,0,VALID,93.1705,VALID,0,VALID,18.5483,VALID,101,VALID,1.23066,
2004-06-12, 00:34:00,VALID,917.847,VALID,0,VALID,93.0662,VALID,-0.0339617,VALID,18.5545,VALID,106,VALID,1.3026,
2004-06-12, 00:35:00,VALID,917.85,VALID,0,VALID,92.6593,VALID,-0.0509425,VALID,18.5967,VALID,105,VALID,1.11166,
2004-06-12, 00:36:00,VALID,917.877,VALID,0,VALID,92.3134,VALID,0,VALID,18.5768,VALID,101,VALID,1.26172,
2004-06-12, 00:37:00,VALID,917.872,VALID,0,VALID,92.3147,VALID,-0.0339617,VALID,18.587,VALID,95,VALID,0.924479,
2004-06-12, 00:38:00,VALID,917.863,VALID,0,VALID,92.6059,VALID,-0.0339617,VALID,18.5642,VALID,101,VALID,1.24184,
2004-06-12, 00:39:00,VALID,917.842,VALID,0,VALID,92.864,VALID,-0.0339617,VALID,18.5446,VALID,110,VALID,1.40425,
2004-06-12, 00:40:00,VALID,917.833,VALID,0,VALID,92.8475,VALID,0,VALID,18.5252,VALID,119,VALID,1.61663,
2004-06-12, 00:41:00,VALID,917.841,VALID,0,VALID,92.7674,VALID,0.0169808,VALID,18.4703,VALID,125,VALID,1.59766,
2004-06-12, 00:42:00,VALID,917.844,VALID,0,VALID,92.9772,VALID,0,VALID,18.4129,VALID,119,VALID,1.75382,
2004-06-12, 00:43:00,VALID,917.838,VALID,0,VALID,93.1336,VALID,-0.0169808,VALID,18.364,VALID,119,VALID,1.7834,
2004-06-12, 00:44:00,VALID,917.822,VALID,0,VALID,93.2964,VALID,-0.0169808,VALID,18.3513,VALID,117,VALID,2.01621,
2004-06-12, 00:45:00,VALID,917.813,VALID,0,VALID,93.2468,VALID,0,VALID,18.3642,VALID,111,VALID,1.8939,
2004-06-12, 00:46:00,VALID,917.799,VALID,0,VALID,93.3409,VALID,-0.0169808,VALID,18.3606,VALID,118,VALID,1.99531,
2004-06-12, 00:47:00,VALID,917.793,VALID,0,VALID,93.2315,VALID,0,VALID,18.3898,VALID,118,VALID,1.87678,
2004-06-12, 00:48:00,VALID,917.774,VALID,0,VALID,92.9479,VALID,-0.0169808,VALID,18.3963,VALID,112,VALID,1.77486,
2004-06-12, 00:49:00,VALID,917.772,VALID,0,VALID,93.0776,VALID,-0.0169808,VALID,18.3834,VALID,125,VALID,1.73029,
2004-06-12, 00:50:00,VALID,917.77,VALID,0,VALID,93.0522,VALID,-0.0339617,VALID,18.3772,VALID,131,VALID,1.64253,
2004-06-12, 00:51:00,VALID,917.768,VALID,0,VALID,93.1272,VALID,-0.0849042,VALID,18.3446,VALID,129,VALID,1.75764,
2004-06-12, 00:52:00,VALID,917.741,VALID,0,VALID,93.042,VALID,-0.0339617,VALID,18.3843,VALID,129,VALID,1.86604,
2004-06-12, 00:53:00,VALID,917.741,VALID,0,VALID,92.686,VALID,-0.0339617,VALID,18.4516,VALID,123,VALID,1.79823,
2004-06-12, 00:54:00,VALID,917.722,VALID,0,VALID,92.2956,VALID,-0.0339617,VALID,18.5229,VALID,117,VALID,1.8016,
2004-06-12, 00:55:00,VALID,917.704,VALID,0,VALID,92.0972,VALID,-0.0679233,VALID,18.5547,VALID,111,VALID,1.81161,
2004-06-12, 00:56:00,VALID,917.68,VALID,0,VALID,92.0451,VALID,-0.0509425,VALID,18.5745,VALID,104,VALID,1.55806,
2004-06-12, 00:57:00,VALID,917.659,VALID,0,VALID,92.0158,VALID,-0.0679233,VALID,18.5773,VALID,103,VALID,1.46932,
2004-06-12, 00:58:00,VALID,917.644,VALID,0,VALID,91.7704,VALID,-0.0509425,VALID,18.5969,VALID,108,VALID,1.94568,
2004-06-12, 00:59:00,VALID,917.636,VALID,0,VALID,91.4614,VALID,-0.0339617,VALID,18.6225,VALID,119,VALID,1.73438,
2004-06-12, 01:00:00,VALID,917.619,VALID,0,VALID,91.6433,VALID,-0.0339617,VALID,18.5902,VALID,120,VALID,1.70469,
2004-06-12, 01:01:00,VALID,917.621,VALID,0,VALID,92.2791,VALID,-0.0339617,VALID,18.4971,VALID,111,VALID,1.50335,
2004-06-12, 01:02:00,VALID,917.622,VALID,0,VALID,92.4024,VALID,-0.101885,VALID,18.4034,VALID,109,VALID,1.53543,
2004-06-12, 01:03:00,VALID,917.618,VALID,0,VALID,91.9815,VALID,-0.0679233,VALID,18.3901,VALID,104,VALID,1.36458,
2004-06-12, 01:04:00,VALID,917.595,VALID,0,VALID,91.7323,VALID,-0.0679233,VALID,18.4223,VALID,102,VALID,1.5333,
2004-06-12, 01:05:00,VALID,917.56,VALID,0,VALID,90.893,VALID,-0.0509425,VALID,18.5167,VALID,108,VALID,1.97257,
2004-06-12, 01:06:00,VALID,917.542,VALID,0,VALID,90.1504,VALID,0,VALID,18.6322,VALID,106,VALID,1.98029,
2004-06-12, 01:07:00,VALID,917.513,VALID,0,VALID,89.5973,VALID,-0.0339617,VALID,18.7424,VALID,97,VALID,1.95313,
2004-06-12, 01:08:00,VALID,917.516,VALID,0,VALID,89.2984,VALID,-0.0849042,VALID,18.8102,VALID,101,VALID,1.73686,
2004-06-12, 01:09:00,VALID,917.478,VALID,0,VALID,89.1382,VALID,-0.0339617,VALID,18.8363,VALID,102,VALID,1.63247,
2004-06-12, 01:10:00,VALID,917.465,VALID,0,VALID,89.0823,VALID,-0.101885,VALID,18.8559,VALID,94,VALID,1.57867,
2004-06-12, 01:11:00,VALID,917.456,VALID,0,VALID,88.9169,VALID,-0.0849042,VALID,18.8981,VALID,103,VALID,1.50521,
2004-06-12, 01:12:00,VALID,917.445,VALID,0,VALID,88.7059,VALID,-0.0679233,VALID,18.9359,VALID,110,VALID,1.50186,
2004-06-12, 01:13:00,VALID,917.44,VALID,0,VALID,88.4007,VALID,-0.0509425,VALID,18.968,VALID,113,VALID,1.64983,
2004-06-12, 01:14:00,VALID,917.431,VALID,0,VALID,88.3956,VALID,-0.0339617,VALID,19,VALID,125,VALID,1.50236,
2004-06-12, 01:15:00,VALID,917.411,VALID,0,VALID,88.9131,VALID,-0.0509425,VALID,18.9553,VALID,120,VALID,1.82719,
2004-06-12, 01:16:00,VALID,917.406,VALID,0,VALID,89.3239,VALID,-0.0339617,VALID,18.8773,VALID,111,VALID,1.76745,
2004-06-12, 01:17:00,VALID,917.406,VALID,0,VALID,89.0238,VALID,-0.0509425,VALID,18.8681,VALID,88,VALID,1.25996,
2004-06-12, 01:18:00,VALID,917.411,VALID,0,VALID,88.8864,VALID,-0.0169808,VALID,18.8483,VALID,86,VALID,1.27493,
2004-06-12, 01:19:00,VALID,917.389,VALID,0,VALID,88.9449,VALID,-0.0849042,VALID,18.842,VALID,97,VALID,1.21708,
2004-06-12, 01:20:00,VALID,917.388,VALID,0,VALID,88.8038,VALID,-0.0339617,VALID,18.819,VALID,78,VALID,0.970846,
2004-06-12, 01:21:00,VALID,917.374,VALID,0,VALID,89.1675,VALID,0,VALID,18.7341,VALID,103,VALID,0.912946,
2004-06-12, 01:22:00,VALID,917.384,VALID,0,VALID,89.5998,VALID,0.0169808,VALID,18.6698,VALID,112,VALID,0.726376,
2004-06-12, 01:23:00,VALID,917.367,VALID,0,VALID,90.0029,VALID,0.0169808,VALID,18.6114,VALID,111,VALID,1.32273,
2004-06-12, 01:24:00,VALID,917.36,VALID,0,VALID,89.7448,VALID,0.0509425,VALID,18.6276,VALID,107,VALID,1.39311,
2004-06-12, 01:25:00,VALID,917.334,VALID,0,VALID,89.1611,VALID,0.0509425,VALID,18.6827,VALID,96,VALID,1.19872,
2004-06-12, 01:26:00,VALID,917.318,VALID,0,VALID,88.2837,VALID,0.0339617,VALID,18.7927,VALID,99,VALID,1.16337,
2004-06-12, 01:27:00,VALID,917.3,VALID,0,VALID,87.5373,VALID,0.0849042,VALID,18.928,VALID,111,VALID,1.53672,
2004-06-12, 01:28:00,VALID,917.281,VALID,0,VALID,86.8506,VALID,0.0509425,VALID,19.0798,VALID,110,VALID,1.51635,
2004-06-12, 01:29:00,VALID,917.27,VALID,0,VALID,86.2873,VALID,0.0509425,VALID,19.2025,VALID,108,VALID,1.38244,
2004-06-12, 01:30:00,VALID,917.263,VALID,0,VALID,86.0991,VALID,0.0339617,VALID,19.2894,VALID,115,VALID,1.15909,
2004-06-12, 01:31:00,VALID,917.267,VALID,0,VALID,86.0291,VALID,0.0509425,VALID,19.3256,VALID,116,VALID,0.935594,
2004-06-12, 01:32:00,VALID,917.259,VALID,0,VALID,86.1588,VALID,0.101885,VALID,19.3016,VALID,124,VALID,0.764382,
2004-06-12, 01:33:00,VALID,917.244,VALID,0,VALID,86.4729,VALID,0.0679233,VALID,19.2633,VALID,119,VALID,0.879573,
2004-06-12, 01:34:00,VALID,917.216,VALID,0,VALID,87.0388,VALID,0.101885,VALID,19.1506,VALID,109,VALID,1.10298,
2004-06-12, 01:35:00,VALID,917.196,VALID,0,VALID,87.3452,VALID,0.0509425,VALID,19.051,VALID,111,VALID,1.51672,
2004-06-12, 01:36:00,VALID,917.193,VALID,0,VALID,87.4241,VALID,-0.0509425,VALID,19.0258,VALID,111,VALID,0.838224,
2004-06-12, 01:37:00,VALID,917.212,VALID,0,VALID,87.7166,VALID,-0.0169808,VALID,18.9717,VALID,119,VALID,0.648438,
2004-06-12, 01:38:00,VALID,917.22,VALID,0,VALID,87.859,VALID,-0.0339617,VALID,18.878,VALID,143,VALID,0.720898,
2004-06-12, 01:39:00,VALID,917.225,VALID,0,VALID,88.6486,VALID,-0.0509425,VALID,18.7422,VALID,124,VALID,1.25167,
2004-06-12, 01:40:00,VALID,917.222,VALID,0,VALID,89.6914,VALID,-0.0339617,VALID,18.6384,VALID,92,VALID,1.79106,
2004-06-12, 01:41:00,VALID,917.225,VALID,0,VALID,89.1738,VALID,-0.0169808,VALID,18.6744,VALID,78,VALID,1.28849,
2004-06-12, 01:42:00,VALID,917.243,VALID,0,VALID,88.9436,VALID,-0.0679233,VALID,18.6772,VALID,102,VALID,0.887607,
2004-06-12, 01:43:00,VALID,917.241,VALID,0,VALID,89.0174,VALID,-0.101885,VALID,18.6516,VALID,127,VALID,0.972561,
2004-06-12, 01:44:00,VALID,917.234,VALID,0,VALID,90.0194,VALID,-0.0509425,VALID,18.5289,VALID,122,VALID,1.25372,
2004-06-12, 01:45:00,VALID,917.231,VALID,0,VALID,91.23,VALID,-0.0339617,VALID,18.4124,VALID,98,VALID,1.24836,
2004-06-12, 01:46:00,VALID,917.224,VALID,0,VALID,91.6967,VALID,-0.0509425,VALID,18.3384,VALID,81,VALID,1.07637,
2004-06-12, 01:47:00,VALID,917.223,VALID,0,VALID,91.7514,VALID,-0.0169808,VALID,18.2932,VALID,86,VALID,1.34339,
2004-06-12, 01:48:00,VALID,917.232,VALID,0,VALID,91.9561,VALID,-0.0679233,VALID,18.2709,VALID,101,VALID,1.12358,
2004-06-12, 01:49:00,VALID,917.226,VALID,0,VALID,92.1417,VALID,-0.0509425,VALID,18.2353,VALID,107,VALID,1.2686,
2004-06-12, 01:50:00,VALID,917.214,VALID,0,VALID,92.4088,VALID,-0.0339617,VALID,18.1962,VALID,105,VALID,1.15911,
2004-06-12, 01:51:00,VALID,917.205,VALID,0,VALID,92.2727,VALID,0.0169808,VALID,18.1962,VALID,120,VALID,1.26339,
2004-06-12, 01:52:00,VALID,917.214,VALID,0,VALID,92.0769,VALID,-0.0169808,VALID,18.2093,VALID,125,VALID,1.03367,
2004-06-12, 01:53:00,VALID,917.208,VALID,0,VALID,92.054,VALID,0,VALID,18.1929,VALID,125,VALID,1.29427,
2004-06-12, 01:54:00,VALID,917.19,VALID,0,VALID,92.4062,VALID,-0.0169808,VALID,18.1542,VALID,111,VALID,1.63188,
2004-06-12, 01:55:00,VALID,917.157,VALID,0,VALID,92.171,VALID,-0.0169808,VALID,18.1673,VALID,87,VALID,1.08299,
2004-06-12, 01:56:00,VALID,917.155,VALID,0,VALID,92.0731,VALID,0,VALID,18.1542,VALID,81,VALID,1.12936,
2004-06-12, 01:57:00,VALID,917.158,VALID,0,VALID,92.0565,VALID,-0.0849042,VALID,18.1422,VALID,95,VALID,0.99082,
2004-06-12, 01:58:00,VALID,917.156,VALID,0,VALID,92.2689,VALID,-0.0339617,VALID,18.0965,VALID,100,VALID,0.770139,
2004-06-12, 01:59:00,VALID,917.134,VALID,0,VALID,92.4164,VALID,-0.0169808,VALID,18.0739,VALID,111,VALID,0.953125,
2004-06-12, 02:00:00,VALID,917.111,VALID,0,VALID,92.4075,VALID,-0.0169808,VALID,18.064,VALID,117,VALID,1.06215,
2004-06-12, 02:01:00,VALID,917.093,VALID,0,VALID,92.2587,VALID,-0.0169808,VALID,18.0839,VALID,110,VALID,0.859722,
2004-06-12, 02:02:00,VALID,917.057,VALID,0,VALID,92.2193,VALID,0,VALID,18.0772,VALID,104,VALID,0.840402,
2004-06-12, 02:03:00,VALID,917.054,VALID,0,VALID,92.1443,VALID,-0.0339617,VALID,18.0709,VALID,99,VALID,0.796148,
2004-06-12, 02:04:00,VALID,917.035,VALID,0,VALID,92.3007,VALID,-0.0849042,VALID,18.0357,VALID,95,VALID,1.33647,
2004-06-12, 02:05:00,VALID,917.021,VALID,0,VALID,91.8556,VALID,-0.0509425,VALID,18.0737,VALID,83,VALID,1.36142,
2004-06-12, 02:06:00,VALID,917.003,VALID,0,VALID,91.3152,VALID,0,VALID,18.1254,VALID,78,VALID,1.39436,
2004-06-12, 02:07:00,VALID,917.007,VALID,0,VALID,91.5237,VALID,0,VALID,18.1486,VALID,84,VALID,1.46044,
2004-06-12, 02:08:00,VALID,916.999,VALID,0,VALID,91.5174,VALID,0,VALID,18.1258,VALID,96,VALID,1.06465,
2004-06-12, 02:09:00,VALID,916.986,VALID,0,VALID,91.8772,VALID,-0.0169808,VALID,18.0866,VALID,115,VALID,1.38597,
2004-06-12, 02:10:00,VALID,916.95,VALID,0,VALID,92.0807,VALID,-0.0339617,VALID,18.0546,VALID,107,VALID,1.35365,
2004-06-12, 02:11:00,VALID,916.946,VALID,0,VALID,91.937,VALID,-0.0339617,VALID,18.032,VALID,95,VALID,0.828646,
2004-06-12, 02:12:00,VALID,916.931,VALID,0,VALID,91.993,VALID,-0.0169808,VALID,17.9771,VALID,108,VALID,0.748224,
2004-06-12, 02:13:00,VALID,916.911,VALID,0,VALID,92.3516,VALID,-0.0169808,VALID,17.8865,VALID,109,VALID,0.661086,
2004-06-12, 02:14:00,VALID,916.906,VALID,0,VALID,92.6542,VALID,-0.0169808,VALID,17.8093,VALID,110,VALID,0.164063,
2004-06-12, 02:15:00,VALID,916.892,VALID,0,VALID,93.1832,VALID,0.0169808,VALID,17.7284,VALID,127,VALID,1.10252,
2004-06-12, 02:16:00,VALID,916.886,VALID,0,VALID,93.8508,VALID,0,VALID,17.6838,VALID,121,VALID,1.4401,
2004-06-12, 02:17:00,VALID,916.873,VALID,0,VALID,93.744,VALID,0,VALID,17.6444,VALID,110,VALID,0.848189,
2004-06-12, 02:18:00,VALID,916.857,VALID,0,VALID,93.8406,VALID,-0.0339617,VALID,17.5967,VALID,104,VALID,0.660156,
2004-06-12, 02:19:00,VALID,916.845,VALID,0,VALID,94.2361,VALID,-0.0169808,VALID,17.5414,VALID,104,VALID,0.350123,
2004-06-12, 02:20:00,VALID,916.833,VALID,0,VALID,94.451,VALID,-0.0169808,VALID,17.5093,VALID,103,VALID,0.51456,
2004-06-12, 02:21:00,VALID,916.831,VALID,0,VALID,94.8286,VALID,-0.0169808,VALID,17.4743,VALID,90,VALID,1.01972,
2004-06-12, 02:22:00,VALID,916.82,VALID,0,VALID,95.364,VALID,-0.0169808,VALID,17.4999,VALID,73,VALID,1.55451,
2004-06-12, 02:23:00,VALID,916.838,VALID,0,VALID,94.5641,VALID,-0.0509425,VALID,17.5937,VALID,90,VALID,0.903646,
2004-06-12, 02:24:00,VALID,916.85,VALID,0,VALID,93.9487,VALID,0,VALID,17.5773,VALID,105,VALID,0.520531,
2004-06-12, 02:25:00,VALID,916.849,VALID,0,VALID,94.2907,VALID,-0.0169808,VALID,17.5418,VALID,85,VALID,0.782227,
2004-06-12, 02:26:00,VALID,916.838,VALID,0,VALID,94.4001,VALID,0.0169808,VALID,17.5582,VALID,90,VALID,0.97832,
2004-06-12, 02:27:00,VALID,916.822,VALID,0,VALID,93.454,VALID,-0.0169808,VALID,17.5676,VALID,114,VALID,0.815518,
2004-06-12, 02:28:00,VALID,916.794,VALID,0,VALID,93.6918,VALID,-0.0509425,VALID,17.5259,VALID,113,VALID,0.937089,
2004-06-12, 02:29:00,VALID,916.771,VALID,0,VALID,93.7821,VALID,-0.0169808,VALID,17.4614,VALID,142,VALID,0.854802,
2004-06-12, 02:30:00,VALID,916.768,VALID,0,VALID,94.1916,VALID,-0.0339617,VALID,17.3871,VALID,143,VALID,0.955966,
2004-06-12, 02:31:00,VALID,916.756,VALID,0,VALID,95.0028,VALID,-0.0509425,VALID,17.3617,VALID,135,VALID,1.34593,
2004-06-12, 02:32:00,VALID,916.734,VALID,0,VALID,94.8884,VALID,-0.0509425,VALID,17.3843,VALID,121,VALID,1.49333,
2004-06-12, 02:33:00,VALID,916.728,VALID,0,VALID,94.5044,VALID,-0.0169808,VALID,17.4809,VALID,119,VALID,1.17931,
2004-06-12, 02:34:00,VALID,916.718,VALID,0,VALID,94.1827,VALID,-0.0339617,VALID,17.5614,VALID,126,VALID,0.936523,
2004-06-12, 02:35:00,VALID,916.705,VALID,0,VALID,93.8126,VALID,0,VALID,17.6133,VALID,133,VALID,0.28561,
2004-06-12, 02:36:00,VALID,916.698,VALID,0,VALID,93.3142,VALID,-0.0339617,VALID,17.623,VALID,133,VALID,0.0984738,
2004-06-12, 02:37:00,VALID,916.693,VALID,0,VALID,92.6873,VALID,0,VALID,17.5773,VALID,133,VALID,0.293341,
2004-06-12, 02:38:00,VALID,916.666,VALID,0,VALID,92.7496,VALID,-0.0169808,VALID,17.4807,VALID,107,VALID,0.618902,
2004-06-12, 02:39:00,VALID,916.646,VALID,0,VALID,93.482,VALID,-0.0509425,VALID,17.3419,VALID,50,VALID,0.889915,
2004-06-12, 02:40:00,VALID,916.633,VALID,0,VALID,95.3487,VALID,-0.0169808,VALID,17.2965,VALID,73,VALID,0.937891,
2004-06-12, 02:41:00,VALID,916.629,VALID,0,VALID,95.0919,VALID,-0.0169808,VALID,17.3581,VALID,77,VALID,0.688519,
2004-06-12, 02:42:00,VALID,916.616,VALID,0,VALID,94.9215,VALID,-0.0339617,VALID,17.3714,VALID,81,VALID,0.88228,
2004-06-12, 02:43:00,VALID,916.611,VALID,0,VALID,94.8134,VALID,0,VALID,17.4256,VALID,89,VALID,0.964844,
2004-06-12, 02:44:00,VALID,916.61,VALID,0,VALID,93.3485,VALID,-0.0509425,VALID,17.4323,VALID,129,VALID,0.90407,
2004-06-12, 02:45:00,VALID,916.616,VALID,0,VALID,93.8826,VALID,-0.0169808,VALID,17.3488,VALID,144,VALID,1.1774,
2004-06-12, 02:46:00,VALID,916.594,VALID,0,VALID,94.5756,VALID,0,VALID,17.2744,VALID,127,VALID,1.71596,
2004-06-12, 02:47:00,VALID,916.6,VALID,0,VALID,95.2419,VALID,-0.0339617,VALID,17.3039,VALID,111,VALID,1.96586,
2004-06-12, 02:48:00,VALID,916.618,VALID,0,VALID,93.8457,VALID,-0.0339617,VALID,17.3777,VALID,58,VALID,0.717478,
2004-06-12, 02:49:00,VALID,916.633,VALID,0,VALID,92.6822,VALID,-0.0169808,VALID,17.294,VALID,12,VALID,0.249092,
2004-06-12, 02:50:00,VALID,916.643,VALID,0,VALID,94.156,VALID,-0.0169808,VALID,17.2649,VALID,212,VALID,0.504261,
2004-06-12, 02:51:00,VALID,916.632,VALID,0,VALID,94.8973,VALID,0,VALID,17.3258,VALID,153,VALID,0.750381,
2004-06-12, 02:52:00,VALID,916.62,VALID,0,VALID,94.4815,VALID,0,VALID,17.439,VALID,184,VALID,0.751817,
2004-06-12, 02:53:00,VALID,916.614,VALID,0,VALID,94.0174,VALID,0,VALID,17.5455,VALID,121,VALID,0.909446,
2004-06-12, 02:54:00,VALID,916.589,VALID,0,VALID,93.6181,VALID,0,VALID,17.5877,VALID,103,VALID,1.3003,
2004-06-12, 02:55:00,VALID,916.586,VALID,0,VALID,94.1636,VALID,-0.0169808,VALID,17.6651,VALID,113,VALID,1.26105,
2004-06-12, 02:56:00,VALID,916.58,VALID,0,VALID,93.3828,VALID,0,VALID,17.7882,VALID,92,VALID,0.787246,
2004-06-12, 02:57:00,VALID,916.589,VALID,0,VALID,92.7788,VALID,0,VALID,17.865,VALID,91,VALID,0.589472,
2004-06-12, 02:58:00,VALID,916.584,VALID,0,VALID,91.6458,VALID,0,VALID,17.8747,VALID,101,VALID,0.221799,
2004-06-12, 02:59:00,VALID,916.575,VALID,0,VALID,91.436,VALID,0,VALID,17.8102,VALID,101,VALID,0.356027,
2004-06-12, 03:00:00,VALID,916.559,VALID,0,VALID,92.3083,VALID,-0.0169808,VALID,17.6875,VALID,112,VALID,0.959847,
2004-06-12, 03:01:00,VALID,916.558,VALID,0,VALID,92.9238,VALID,-0.0339617,VALID,17.5459,VALID,122,VALID,0.733574,
2004-06-12, 03:02:00,VALID,916.553,VALID,0,VALID,94.2984,VALID,-0.0169808,VALID,17.4521,VALID,136,VALID,1.2748,
2004-06-12, 03:03:00,VALID,916.546,VALID,0,VALID,94.7358,VALID,-0.0169808,VALID,17.4523,VALID,118,VALID,1.15488,
2004-06-12, 03:04:00,VALID,916.544,VALID,0,VALID,94.5959,VALID,0,VALID,17.4911,VALID,106,VALID,1.06534,
2004-06-12, 03:05:00,VALID,916.526,VALID,0,VALID,94.3047,VALID,-0.0169808,VALID,17.5263,VALID,99,VALID,0.928993,
2004-06-12, 03:06:00,VALID,916.54,VALID,0,VALID,93.8533,VALID,-0.0169808,VALID,17.5524,VALID,141,VALID,1.04539,
2004-06-12, 03:07:00,VALID,916.526,VALID,0,VALID,94.1585,VALID,-0.0339617,VALID,17.5745,VALID,127,VALID,1.39634,
2004-06-12, 03:08:00,VALID,916.539,VALID,0,VALID,93.3536,VALID,-0.0169808,VALID,17.6365,VALID,111,VALID,0.652616,
2004-06-12, 03:09:00,VALID,916.54,VALID,0,VALID,92.733,VALID,-0.0169808,VALID,17.6103,VALID,110,VALID,0.0316051,
2004-06-12, 03:10:00,VALID,916.535,VALID,0,VALID,92.8996,VALID,-0.0849042,VALID,17.5687,VALID,110,VALID,0.200149,
2004-06-12, 03:11:00,VALID,916.531,VALID,0,VALID,93.201,VALID,-0.0509425,VALID,17.5134,VALID,110,VALID,0.420898,
2004-06-12, 03:12:00,VALID,916.537,VALID,0,VALID,93.2976,VALID,-0.0169808,VALID,17.4237,VALID,110,VALID,0.374668,
2004-06-12, 03:13:00,VALID,916.539,VALID,0,VALID,93.9436,VALID,-0.0339617,VALID,17.314,VALID,139,VALID,0.884375,
2004-06-12, 03:14:00,VALID,916.532,VALID,0,VALID,95.2254,VALID,-0.0679233,VALID,17.2914,VALID,117,VALID,1.46675,
2004-06-12, 03:15:00,VALID,916.533,VALID,0,VALID,94.7905,VALID,-0.0169808,VALID,17.4399,VALID,101,VALID,1.37798,
2004-06-12, 03:16:00,VALID,916.528,VALID,0,VALID,93.1425,VALID,-0.0169808,VALID,17.6301,VALID,110,VALID,0.97433,
2004-06-12, 03:17:00,VALID,916.533,VALID,0,VALID,92.7597,VALID,-0.0169808,VALID,17.7108,VALID,132,VALID,0.818824,
2004-06-12, 03:18:00,VALID,916.531,VALID,0,VALID,92.8844,VALID,-0.0509425,VALID,17.7174,VALID,123,VALID,0.676136,
2004-06-12, 03:19:00,VALID,916.536,VALID,0,VALID,92.8004,VALID,-0.0509425,VALID,17.6753,VALID,119,VALID,0.460565,
2004-06-12, 03:20:00,VALID,916.528,VALID,0,VALID,93.028,VALID,0,VALID,17.6193,VALID,119,VALID,0.467035,
2004-06-12, 03:21:00,VALID,916.547,VALID,0,VALID,93.1183,VALID,0.0679233,VALID,17.5483,VALID,143,VALID,1.04942,
2004-06-12, 03:22:00,VALID,916.558,VALID,0,VALID,94.072,VALID,0.0679233,VALID,17.4835,VALID,133,VALID,1.56335,
2004-06-12, 03:23:00,VALID,916.556,VALID,0,VALID,94.2259,VALID,0.0679233,VALID,17.4934,VALID,128,VALID,1.70889,
2004-06-12, 03:24:00,VALID,916.581,VALID,0,VALID,93.9741,VALID,0.0679233,VALID,17.5287,VALID,120,VALID,1.49237,
2004-06-12, 03:25:00,VALID,916.592,VALID,0,VALID,93.1959,VALID,0.0679233,VALID,17.587,VALID,103,VALID,0.456936,
2004-06-12, 03:26:00,VALID,916.592,VALID,0,VALID,92.4342,VALID,0.0679233,VALID,17.5285,VALID,87,VALID,0.385789,
2004-06-12, 03:27:00,VALID,916.6,VALID,0,VALID,92.1468,VALID,0.0679233,VALID,17.4317,VALID,78,VALID,0.610417,
2004-06-12, 03:28:00,VALID,916.591,VALID,0,VALID,93.337,VALID,0.0509425,VALID,17.3454,VALID,96,VALID,0.584549,
2004-06-12, 03:29:00,VALID,916.582,VALID,0,VALID,94.1928,VALID,0.0679233,VALID,17.2903,VALID,118,VALID,1.15662,
2004-06-12, 03:30:00,VALID,916.607,VALID,0,VALID,94.203,VALID,0.0509425,VALID,17.2804,VALID,114,VALID,0.530469,
2004-06-12, 03:31:00,VALID,916.617,VALID,0,VALID,93.7198,VALID,0.0849042,VALID,17.2189,VALID,114,VALID,0.159455,
2004-06-12, 03:32:00,VALID,916.63,VALID,0,VALID,93.791,VALID,0.0849042,VALID,17.1477,VALID,131,VALID,0.633929,